Vertical_Velocity
-1 -1 0 0 -1 0 -0 0 1 -0 -1 -1 -1 -0 -1 -1 -1 -1 -3 -4 -2 0 1 2 2 2 0 0 1 0 0 -2 2 1 -2 -4 -1 2 1 2 1 3 -1 -3 4
-1 -1 -1 0 -1 -1 -1 -1 -0 1 -1 -1 -1 0 -1 -1 -2 -3 -5 -1 0 -0 1 2 -3 -1 5 1 1 1 1 3 1 -0 -2 -4 2 8 -1 2 5 0 3 -4 -4
-0 -0 -1 -1 -1 -1 -1 -0 1 -1 0 0 -0 -1 -0 -2 -2 -3 -1 2 -1 -3 1 -2 -4 -3 2 3 -1 -1 -1 -2 -0 -3 -5 -7 0 -3 0 4 0 3 1 0 -3
-1 -0 -0 -0 -0 -1 -1 0 0 0 1 1 -0 -1 -1 -1 -1 -1 2 -1 -3 1 1 -3 -1 -1 1 -2 1 -0 2 0 -1 1 -8 -10 6 0 5 4 -3 -0 1 3 2
-0 0 -0 1 -0 -1 0 0 0 0 2 1 -0 -1 -1 0 0 2 0 -3 3 -0 -0 1 0 -6 1 2 -1 1 1 0 -3 -2 -8 -6 6 -3 0 0 -1 2 2 4 4
-0 -0 0 0 -1 -0 -0 0 0 0 1 1 -1 -1 -1 -1 0 1 -1 3 -0 -2 -2 2 -3 1 2 2 2 0 -0 -2 -7 -5 -4 -6 3 3 -2 2 1 -1 1 1 -1
-1 -1 1 0 -1 -0 -0 -0 0 1 1 -0 -1 -1 -1 -0 1 1 0 -1 0 -1 -4 1 -1 0 1 -1 -3 -1 -1 -5 -5 -1 -2 -3 -7 1 -0 1 3 -1 -3 2 1
-1 -0 0 -0 1 0 -1 -1 0 -0 0 -0 -1 -2 -0 1 4 3 1 3 5 -3 -7 -1 -1 1 -1 -0 -2 -1 0 -2 -2 -1 1 -2 -5 4 1 -1 3 1 0 -4 -4
-1 0 0 -1 -0 0 -0 -1 0 -1 -1 -1 -1 -1 -1 -1 1 5 -0 1 -2 -1 -0 -4 -4 1 0 -1 -1 0 -1 -1 -1 -2 -1 -2 -4 0 -1 2 3 3 0 0 -1
-0 0 1 0 0 0 -0 -0 -1 -1 -0 -1 -1 -2 -3 -8 -6 -1 1 -1 1 2 1 -1 -1 2 2 -1 -3 -4 -7 -3 -1 -4 -4 -5 -5 2 2 1 2 1 0 1 -1
1 1 1 0 1 -1 0 -1 -2 -1 -2 -2 4 2 -3 0 -0 -1 -3 -0 -2 -0 -2 -2 8 2 2 -4 -2 -2 -1 -1 -0 -5 -11 -8 -4 1 1 2 3 1 2 0 1
2 2 2 1 0 1 2 3 1 -4 -1 -0 -4 -2 4 2 -0 -1 3 -1 -0 1 -0 -1 17 11 -2 -6 -2 -4 -2 -2 -1 -3 -6 -3 -5 -5 2 1 0 5 1 0 0
1 1 1 2 1 1 1 2 2 2 0 1 -1 -3 -2 -1 -2 3 -2 -2 -3 0 -3 -1 5 1 -3 -2 -3 -3 -5 -5 -7 -5 -2 -2 -0 -5 -3 -1 1 2 2 1 -0
1 1 2 1 2 3 1 5 1 0 -0 -1 -0 -1 3 -1 1 2 -4 -1 -2 -1 -3 -4 -4 -3 4 2 -1 1 -7 -8 -3 0 -3 -5 1 1 -3 -6 -0 5 -1 -0 1
1 1 2 1 1 1 2 2 1 2 3 4 0 6 -1 1 0 4 -2 -2 2 -4 -2 3 -3 -4 -0 -1 5 -2 -3 -1 -3 -1 4 -1 -5 2 -2 -1 -4 0 -2 2 1
1 -0 1 2 3 2 3 2 3 1 -1 -3 -0 0 1 -0 0 -1 -0 1 -8 -7 -2 -3 -3 -2 1 -0 -0 0 -4 -5 -3 -3 -2 -0 -6 14 -3 -5 -1 -10 -4 -1 -3
0 1 -0 2 2 3 2 2 1 0 -1 -3 -3 -2 -1 2 3 2 4 4 3 0 7 2 -1 1 -1 0 -2 -0 -0 0 -2 -1 -1 -6 -3 0 3 -6 -5 3 -7 -5 -6
1 1 -3 5 2 2 2 1 1 2 0 1 3 -1 -2 -1 1 -0 1 1 0 0 -1 2 -1 3 7 1 1 -1 -1 -1 -5 -0 2 -0 -6 5 -3 1 -2 -5 2 1 -6
-1 -0 -3 5 -1 3 2 5 -2 -2 4 5 3 2 -3 -2 -1 -1 1 -0 1 0 1 0 4 2 0 -1 -1 2 -2 -1 -6 -1 0 2 -4 5 -2 4 -0 -1 -2 -3 -2
2 -1 2 -0 -0 0 -0 11 0 3 2 4 2 4 0 -0 1 5 1 -6 -3 -0 -1 -2 -1 0 -1 -0 0 1 -0 0 -0 -5 -7 3 -8 -4 4 5 -3 -1 2 -4 -5
-0 -1 0 1 -1 -2 4 9 4 1 2 0 0 3 2 1 1 1 4 1 -3 -6 -1 3 4 2 1 1 3 2 -2 -3 -1 -2 -9 -0 -5 -3 -0 -1 -2 3 -2 -4 -1
-1 -3 0 1 0 4 6 8 -1 -7 -1 -3 -3 2 -1 -0 4 4 5 1 2 2 -4 4 2 6 6 -2 7 3 1 0 -4 -2 0 -6 -1 -5 -6 -4 -6 0 2 -9 -3
-0 -1 -3 2 2 1 -0 -2 3 1 -4 6 -2 -1 -2 -1 2 -2 3 2 2 1 -4 0 -5 -0 7 6 6 -0 4 0 -4 -4 2 -2 -2 -1 1 -2 -6 -13 -1 2 3
-2 -1 -2 -1 -3 -2 -3 4 13 7 -0 4 7 -3 0 -0 1 -1 4 -5 2 -0 2 1 -4 -4 1 5 0 4 2 -4 -0 -2 -0 1 0 -4 -1 3 -5 -3 -3 -8 -8
-1 -2 1 1 -5 -0 -2 9 4 9 3 -9 2 0 4 0 2 -2 4 3 -2 0 2 -0 -0 -1 -2 0 2 3 0 -1 2 -1 -1 -0 9 2 -3 -6 -1 -4 0 3 2
-2 -2 -0 -0 -3 -3 -3 3 9 -5 14 14 -2 -2 -1 2 3 -0 1 2 4 5 3 4 -6 -2 4 4 -0 -1 5 10 2 2 5 5 4 12 -5 2 2 -0 2 -1 -0
-1 -1 -3 -1 -2 -1 -0 3 5 6 1 7 2 3 -0 -2 -2 5 11 9 0 3 6 -1 -4 -4 -1 4 -2 -6 10 1 -1 2 -1 -1 -1 9 -2 3 1 -2 -1 -2 2
Height
5896 5897 5897 5898 5899 5900 5901 5902 5903 5904 5904 5905 5906 5906 5908 5911 5915 5919 5922 5927 5930 5931 5933 5935 5938 5939 5939 5939 5938 5939 5939 5936 5935 5932 5932 5933 5933 5935 5933 5931 5932 5930 5929 5927 5928
5897 5897 5897 5898 5899 5900 5901 5902 5903 5904 5905 5906 5906 5907 5908 5912 5916 5921 5924 5928 5930 5932 5934 5935 5935 5938 5939 5937 5940 5940 5941 5940 5938 5934 5932 5934 5936 5937 5935 5933 5933 5932 5930 5928 5926
5897 5897 5897 5897 5898 5900 5901 5902 5903 5905 5906 5906 5907 5907 5909 5912 5918 5922 5926 5928 5930 5932 5934 5937 5938 5939 5940 5940 5942 5943 5942 5941 5939 5938 5938 5937 5937 5936 5935 5934 5934 5934 5933 5931 5930
5896 5896 5896 5897 5898 5899 5901 5902 5903 5904 5906 5906 5907 5908 5909 5913 5919 5922 5925 5928 5930 5933 5936 5939 5940 5939 5941 5943 5944 5943 5942 5942 5941 5940 5939 5937 5940 5939 5937 5936 5935 5935 5935 5935 5934
5895 5896 5896 5897 5898 5899 5901 5902 5903 5904 5905 5906 5907 5908 5910 5913 5918 5921 5925 5928 5932 5935 5937 5941 5942 5941 5942 5943 5944 5945 5945 5943 5943 5942 5939 5940 5942 5942 5940 5939 5937 5938 5938 5938 5937
5894 5895 5896 5897 5898 5899 5901 5902 5903 5904 5904 5905 5907 5908 5910 5914 5918 5921 5926 5929 5932 5934 5937 5938 5943 5943 5945 5945 5946 5947 5945 5945 5944 5942 5941 5942 5944 5943 5941 5941 5942 5940 5939 5939 5937
5893 5895 5895 5897 5898 5899 5900 5901 5902 5904 5904 5906 5907 5908 5911 5915 5919 5923 5926 5930 5931 5934 5936 5937 5940 5945 5946 5947 5948 5948 5949 5947 5947 5944 5944 5945 5944 5944 5943 5943 5944 5943 5942 5941 5939
5893 5894 5895 5896 5897 5898 5899 5900 5902 5903 5904 5906 5907 5909 5912 5916 5921 5924 5927 5930 5931 5932 5935 5937 5940 5944 5946 5947 5947 5948 5948 5948 5947 5947 5946 5946 5946 5946 5946 5946 5946 5945 5944 5943 5943
5892 5893 5894 5895 5896 5897 5898 5899 5901 5903 5904 5905 5907 5910 5912 5916 5920 5923 5927 5929 5931 5934 5937 5939 5943 5946 5948 5947 5948 5949 5948 5947 5948 5946 5947 5945 5944 5948 5948 5949 5949 5948 5947 5945 5944
5891 5892 5893 5894 5894 5896 5897 5899 5900 5902 5903 5905 5908 5911 5912 5915 5918 5922 5926 5928 5932 5934 5937 5941 5944 5945 5946 5947 5946 5946 5946 5946 5946 5946 5944 5945 5944 5945 5948 5949 5949 5949 5947 5946 5945
5890 5891 5892 5892 5893 5894 5896 5898 5901 5903 5903 5905 5908 5911 5914 5918 5921 5922 5924 5927 5931 5935 5938 5941 5947 5945 5945 5946 5946 5946 5945 5945 5945 5944 5944 5943 5943 5944 5946 5948 5948 5947 5946 5946 5945
5890 5890 5891 5891 5893 5894 5896 5898 5901 5903 5904 5905 5906 5911 5915 5918 5921 5924 5927 5930 5932 5934 5937 5943 5945 5946 5944 5944 5943 5942 5943 5944 5945 5943 5942 5942 5943 5944 5945 5945 5945 5947 5945 5945 5946
5890 5890 5891 5892 5893 5894 5896 5898 5900 5902 5903 5906 5908 5910 5913 5918 5921 5924 5928 5930 5932 5935 5937 5940 5943 5942 5942 5944 5943 5942 5941 5942 5943 5941 5941 5941 5942 5941 5943 5942 5942 5944 5944 5943 5943
5889 5890 5891 5892 5894 5894 5896 5899 5899 5901 5903 5906 5908 5910 5914 5915 5920 5924 5926 5930 5932 5934 5935 5938 5939 5942 5944 5944 5942 5942 5941 5940 5940 5942 5941 5941 5942 5941 5939 5940 5942 5940 5940 5940 5939
5887 5889 5890 5891 5893 5894 5897 5897 5898 5900 5903 5906 5907 5911 5911 5915 5918 5922 5924 5928 5929 5931 5934 5937 5936 5937 5940 5941 5941 5941 5939 5939 5938 5939 5941 5939 5938 5939 5937 5938 5937 5939 5937 5937 5937
5883 5885 5888 5890 5891 5894 5895 5897 5898 5901 5900 5902 5905 5908 5910 5913 5917 5919 5922 5926 5925 5925 5930 5932 5932 5934 5936 5938 5938 5938 5937 5936 5935 5936 5937 5936 5933 5938 5936 5935 5934 5932 5932 5931 5932
5878 5881 5884 5887 5889 5891 5893 5895 5898 5897 5898 5900 5901 5904 5907 5911 5914 5917 5921 5924 5925 5926 5929 5929 5929 5932 5931 5933 5933 5933 5933 5932 5933 5932 5933 5932 5931 5931 5933 5930 5929 5928 5927 5926 5927
5871 5875 5877 5883 5885 5887 5890 5892 5894 5895 5896 5898 5900 5901 5903 5906 5910 5913 5915 5918 5920 5921 5923 5925 5927 5928 5929 5929 5930 5929 5929 5929 5927 5928 5928 5927 5927 5928 5926 5926 5923 5923 5923 5922 5922
5863 5867 5870 5876 5878 5882 5886 5888 5888 5891 5894 5897 5898 5899 5899 5901 5904 5907 5911 5912 5914 5916 5919 5920 5922 5921 5923 5925 5925 5926 5925 5925 5923 5922 5921 5922 5923 5923 5922 5920 5918 5918 5915 5915 5915
5854 5857 5863 5866 5870 5874 5879 5883 5882 5885 5888 5890 5892 5895 5896 5898 5901 5903 5904 5905 5907 5910 5911 5913 5915 5916 5918 5918 5919 5920 5921 5920 5917 5915 5914 5914 5914 5912 5917 5916 5913 5912 5911 5909 5910
5844 5848 5851 5856 5860 5865 5872 5877 5877 5876 5880 5882 5885 5888 5891 5893 5897 5899 5901 5902 5902 5904 5906 5910 5912 5913 5913 5914 5915 5916 5913 5911 5912 5911 5908 5907 5907 5906 5907 5910 5908 5906 5904 5903 5906
5836 5838 5841 5845 5850 5855 5862 5866 5866 5865 5869 5873 5877 5880 5883 5888 5891 5893 5895 5895 5897 5899 5900 5903 5905 5908 5910 5909 5909 5910 5907 5906 5905 5906 5903 5901 5900 5899 5899 5900 5901 5901 5900 5898 5899
5827 5829 5830 5835 5839 5843 5846 5853 5856 5859 5861 5867 5868 5871 5875 5880 5883 5884 5887 5889 5891 5892 5893 5896 5897 5901 5903 5906 5905 5902 5901 5900 5899 5899 5898 5897 5897 5894 5893 5892 5891 5894 5895 5895 5893
5819 5821 5822 5826 5829 5831 5837 5844 5850 5852 5853 5858 5862 5863 5867 5872 5876 5878 5881 5881 5884 5885 5886 5887 5888 5891 5893 5895 5896 5897 5896 5895 5894 5894 5892 5893 5891 5890 5888 5886 5887 5887 5888 5888 5887
5811 5814 5816 5818 5819 5821 5827 5835 5838 5840 5843 5843 5850 5854 5860 5864 5867 5870 5873 5876 5876 5877 5878 5879 5880 5882 5882 5884 5885 5887 5887 5888 5888 5887 5886 5886 5886 5883 5880 5879 5878 5880 5883 5885 5882
5803 5806 5809 5809 5809 5811 5815 5824 5827 5831 5836 5838 5841 5844 5849 5854 5858 5861 5865 5869 5871 5870 5871 5872 5871 5874 5876 5876 5876 5877 5878 5878 5877 5878 5878 5878 5877 5874 5871 5872 5873 5872 5873 5873 5871
5796 5798 5800 5801 5802 5803 5807 5812 5817 5823 5825 5829 5833 5836 5839 5842 5846 5851 5855 5858 5860 5861 5863 5865 5864 5864 5864 5865 5864 5865 5866 5865 5865 5865 5864 5864 5865 5865 5862 5862 5863 5862 5862 5862 5861